sat.trackr.live / text

‹ back to catalog

STARLINK-30077

NORAD 57460 · 2023-107D

PAYLOAD ACTIVE UNKNOWN

§ Identity

Operator
Country
US
Launch date
2023-07-28
Launch site
AFETR
Launch vehicle
Mass (kg)
RCS (m²)

Purposes: comms

External: N2YO · Heavens-Above · Gunter

§ Orbital elements

Epoch: 2026-09-20T10:12:53.796096Z

Period
94.27 min
Inclination
43.0020°
Eccentricity
0.0001175
Mean motion
15.27577114 rev/d
Perigee alt
482.3 km
Apogee alt
483.9 km
Semi-major
6,861.2 km
B*
1.8702e-5
RAAN
315.9835°
Arg perigee
261.5649°
Mean anomaly
98.5070°
Rev number
17,493

§ Raw data

STARLINK-300771 57460U 23107D   26263.42562264  .00000253  00000+0  18702-4 0  99962 57460  43.0020 315.9835 0001175 261.5649  98.5070 15.27577114174937

JSON: /api/v1/satellites/57460 · /tle

For live sub-satellite position, see the globe view (requires WebGL).

§ Visibility from observer

Set your observer location to see the next 7 days of passes ≥ 10°. The values pass through the URL so the page stays shareable.

No JS? Fill the form by hand. The geolocation button needs JavaScript.